Retour au catalogue

SL-6 R/B(2)

ActifHEO
NORAD 13169·ROCKET BODY·🇷🇺 Russia

Lancé Apr 7, 1982 depuis Plesetsk Cosmodrome

Loading…

Prochains Passages (prochaines 24 heures)

TLE

FraisSource: Space-Track

Époque: Sep 13, 2026, 03:21 UTC

1 13169U 82029D   26256.13958344 -.00000528  00000-0  00000+0 0  9994
2 13169  72.0227 323.5848 5310270 308.1997  15.0220  2.04140255330784

Suivez SL-6 R/B(2) en temps réel avec AllMySat

Download on the App Store